Radiation Dose at Monitoring Post of Fukushima Daini Nuclear Power Station
Date,Time,MP-1(microSv/h),MP-2(microSv/h),MP-3(microSv/h),MP-4(microSv/h),MP-5(microSv/h),MP-6(microSv/h),MP-7(microSv/h),Wind Direction,Wind Velocity(m/s),Rain
2015/11/06,00:00,0.499,0.283,0.518,0.475,0.451,0.232,0.203,west,1.2,No
2015/11/06,00:10,0.502,0.281,0.516,0.478,0.448,0.231,0.202,west-southwest,0.6,No
2015/11/06,00:20,0.502,0.281,0.518,0.474,0.450,0.232,0.202,west-southwest,0.9,No
2015/11/06,00:30,0.500,0.281,0.518,0.478,0.449,0.232,0.202,west-southwest,2.0,No
2015/11/06,00:40,0.502,0.282,0.517,0.475,0.447,0.233,0.200,west-southwest,1.4,No
2015/11/06,00:50,0.499,0.281,0.520,0.474,0.450,0.232,0.202,west,0.8,No
2015/11/06,01:00,0.503,0.281,0.515,0.476,0.448,0.233,0.202,west-southwest,0.7,No
2015/11/06,01:10,0.501,0.280,0.520,0.474,0.447,0.230,0.202,west-southwest,1.4,No
2015/11/06,01:20,0.501,0.282,0.517,0.478,0.448,0.231,0.202,west-northwest,1.1,No
2015/11/06,01:30,0.504,0.281,0.517,0.475,0.448,0.232,0.201,west,2.3,No
2015/11/06,01:40,0.500,0.280,0.518,0.473,0.449,0.232,0.203,west-southwest,2.2,No
2015/11/06,01:50,0.503,0.280,0.515,0.477,0.449,0.231,0.202,west-northwest,2.2,No
2015/11/06,02:00,0.500,0.281,0.520,0.475,0.447,0.232,0.202,west-northwest,1.4,No
2015/11/06,02:10,0.500,0.280,0.515,0.476,0.450,0.232,0.202,north,1.0,No
2015/11/06,02:20,0.505,0.282,0.521,0.478,0.447,0.231,0.201,north,1.0,No
2015/11/06,02:30,0.500,0.279,0.517,0.474,0.449,0.232,0.202,north,1.7,No
2015/11/06,02:40,0.501,0.279,0.515,0.477,0.449,0.231,0.201,north-northeast,1.9,No
2015/11/06,02:50,0.502,0.280,0.520,0.475,0.446,0.231,0.202,north,2.6,No
2015/11/06,03:00,0.500,0.282,0.514,0.475,0.450,0.231,0.202,north,2.2,No
2015/11/06,03:10,0.503,0.281,0.518,0.477,0.447,0.231,0.202,north-northwest,2.7,No
2015/11/06,03:20,0.499,0.282,0.515,0.475,0.448,0.232,0.203,north-northwest,3.5,No
2015/11/06,03:30,0.500,0.281,0.514,0.476,0.449,0.232,0.201,north,3.9,No
2015/11/06,03:40,0.505,0.280,0.517,0.476,0.449,0.232,0.203,north-northwest,3.3,No
2015/11/06,03:50,0.502,0.281,0.513,0.475,0.448,0.232,0.203,north,3.3,No
2015/11/06,04:00,0.503,0.280,0.518,0.477,0.449,0.232,0.203,north,3.2,No
2015/11/06,04:10,0.503,0.282,0.519,0.474,0.448,0.232,0.202,north,4.1,No
2015/11/06,04:20,0.500,0.282,0.514,0.476,0.449,0.232,0.203,north,6.1,No
2015/11/06,04:30,0.503,0.280,0.520,0.477,0.450,0.233,0.204,north,7.2,No
2015/11/06,04:40,0.500,0.281,0.514,0.476,0.448,0.232,0.202,north,6.5,No
2015/11/06,04:50,0.503,0.282,0.517,0.476,0.452,0.232,0.202,north,6.4,No
2015/11/06,05:00,0.500,0.280,0.517,0.475,0.449,0.232,0.201,north,6.3,No
2015/11/06,05:10,0.502,0.282,0.515,0.476,0.448,0.233,0.202,north,6.7,No
2015/11/06,05:20,0.502,0.282,0.520,0.478,0.449,0.232,0.202,north,5.8,No
2015/11/06,05:30,0.501,0.280,0.518,0.475,0.448,0.232,0.202,north,5.8,No
2015/11/06,05:40,0.503,0.280,0.517,0.475,0.448,0.232,0.202,north,5.8,No
2015/11/06,05:50,0.503,0.281,0.518,0.478,0.448,0.232,0.202,north,6.1,No
2015/11/06,06:00,0.501,0.280,0.517,0.475,0.447,0.232,0.202,north,5.8,No
2015/11/06,06:10,0.504,0.282,0.518,0.476,0.449,0.232,0.204,north,5.3,No
2015/11/06,06:20,0.500,0.280,0.516,0.478,0.449,0.233,0.202,north,5.0,No
2015/11/06,06:30,0.499,0.280,0.515,0.474,0.449,0.232,0.204,north,5.3,No
2015/11/06,06:40,0.501,0.280,0.518,0.478,0.449,0.233,0.202,north,5.3,No
2015/11/06,06:50,0.500,0.281,0.515,0.475,0.450,0.232,0.202,north,4.6,No
2015/11/06,07:00,0.502,0.280,0.519,0.473,0.448,0.232,0.202,north-northwest,3.8,No
2015/11/06,07:10,0.503,0.280,0.518,0.476,0.449,0.232,0.202,north-northwest,3.6,No
2015/11/06,07:20,0.499,0.280,0.516,0.473,0.448,0.232,0.201,north-northwest,4.1,No
2015/11/06,07:30,0.502,0.279,0.518,0.476,0.447,0.231,0.202,north-northwest,3.6,No
2015/11/06,07:40,0.501,0.281,0.514,0.474,0.448,0.232,0.201,north-northwest,3.9,No
2015/11/06,07:50,0.501,0.281,0.517,0.474,0.452,0.232,0.201,north,3.6,No
2015/11/06,08:00,0.501,0.280,0.516,0.474,0.448,0.231,0.202,north,3.5,No
2015/11/06,08:10,0.499,0.282,0.517,0.474,0.449,0.231,0.199,north-northwest,3.1,No
2015/11/06,08:20,0.502,0.280,0.517,0.474,0.450,0.231,0.201,north,3.0,No
2015/11/06,08:30,0.499,0.282,0.515,0.475,0.448,0.232,0.201,north,3.1,No
2015/11/06,08:40,0.503,0.281,0.518,0.472,0.450,0.232,0.200,north-northwest,2.4,No
2015/11/06,08:50,0.498,0.281,0.513,0.476,0.447,0.232,0.201,north-northwest,1.7,No
2015/11/06,09:00,0.501,0.278,0.517,0.471,0.452,0.231,0.200,north-northwest,1.7,No
2015/11/06,09:10,0.499,0.280,0.515,0.472,0.448,0.232,0.199,north,1.4,No
2015/11/06,09:20,0.503,0.278,0.517,0.475,0.451,0.231,0.199,north,2.2,No
2015/11/06,09:30,0.497,0.281,0.514,0.471,0.451,0.231,0.202,north,1.4,No
2015/11/06,09:40,0.500,0.280,0.517,0.473,0.445,0.232,0.203,north,2.0,No
2015/11/06,09:50,0.499,0.278,0.513,0.477,0.450,0.232,0.200,north,2.1,No
2015/11/06,10:00,0.494,0.281,0.516,0.474,0.448,0.232,0.201,north-northeast,1.4,No
2015/11/06,10:10,0.501,0.279,0.514,0.473,0.444,0.232,0.203,north-northeast,2.8,No
2015/11/06,10:20,0.499,0.279,0.516,0.479,0.449,0.230,0.202,north-northeast,3.5,No
2015/11/06,10:30,0.495,0.281,0.512,0.474,0.450,0.232,0.201,north-northeast,2.7,No
2015/11/06,10:40,0.501,0.280,0.518,0.470,0.445,0.232,0.202,northeast,3.2,No
2015/11/06,10:50,0.504,0.279,0.512,0.471,0.444,0.232,0.202,north-northeast,2.0,No
2015/11/06,11:00,0.497,0.281,0.517,0.477,0.451,0.233,0.201,north-northeast,2.8,No
2015/11/06,11:10,0.497,0.282,0.515,0.476,0.450,0.232,0.204,northeast,2.5,No
2015/11/06,11:20,0.502,0.279,0.515,0.470,0.446,0.233,0.202,northeast,1.5,No
2015/11/06,11:30,0.501,0.281,0.517,0.475,0.444,0.232,0.201,northeast,2.1,No
2015/11/06,11:40,0.496,0.282,0.515,0.479,0.449,0.231,0.202,northeast,3.6,No
2015/11/06,11:50,0.500,0.279,0.519,0.476,0.452,0.232,0.203,north-northeast,4.6,No
2015/11/06,12:00,0.503,0.280,0.515,0.471,0.447,0.232,0.201,northeast,4.4,No
2015/11/06,12:10,0.500,0.281,0.509,0.470,0.444,0.232,0.204,north-northeast,3.9,No
2015/11/06,12:20,0.502,0.280,0.514,0.476,0.453,0.231,0.204,northeast,3.1,No
2015/11/06,12:30,0.504,0.279,0.514,0.478,0.450,0.231,0.200,northeast,5.0,No
2015/11/06,12:40,0.500,0.282,0.513,0.474,0.447,0.233,0.202,northeast,6.1,No
2015/11/06,12:50,0.508,0.281,0.510,0.473,0.449,0.232,0.203,northeast,5.3,No
2015/11/06,13:00,0.503,0.281,0.515,0.472,0.455,0.232,0.202,north-northeast,4.3,No
2015/11/06,13:10,0.506,0.282,0.517,0.478,0.451,0.233,0.201,northeast,4.5,No
2015/11/06,13:20,0.505,0.279,0.514,0.477,0.445,0.232,0.204,north-northeast,4.0,No
2015/11/06,13:30,0.502,0.281,0.511,0.473,0.454,0.233,0.202,north-northeast,4.2,No
2015/11/06,13:40,0.504,0.282,0.517,0.472,0.451,0.232,0.201,northeast,2.8,No
2015/11/06,13:50,0.500,0.280,0.519,0.478,0.446,0.233,0.204,north,2.5,No
2015/11/06,14:00,0.505,0.282,0.516,0.480,0.455,0.233,0.202,north,2.9,No
2015/11/06,14:10,0.504,0.283,0.522,0.474,0.452,0.230,0.204,north-northeast,3.4,No
2015/11/06,14:20,0.503,0.279,0.515,0.481,0.454,0.231,0.203,north,3.3,No
2015/11/06,14:30,0.505,0.282,0.522,0.479,0.450,0.231,0.202,north-northeast,3.2,No
2015/11/06,14:40,0.503,0.280,0.518,0.478,0.451,0.232,0.203,north,3.6,No
2015/11/06,14:50,0.504,0.282,0.517,0.482,0.453,0.231,0.203,north,3.1,No
2015/11/06,15:00,0.502,0.281,0.520,0.477,0.451,0.232,0.204,north,3.1,No
2015/11/06,15:10,0.506,0.282,0.515,0.481,0.454,0.233,0.202,north,3.3,No
2015/11/06,15:20,0.501,0.283,0.520,0.475,0.450,0.233,0.203,north,3.0,No
2015/11/06,15:30,0.505,0.281,0.514,0.482,0.454,0.235,0.203,north,2.5,No
2015/11/06,15:40,0.502,0.281,0.521,0.476,0.448,0.230,0.203,north,2.8,No
2015/11/06,15:50,0.507,0.282,0.514,0.481,0.453,0.231,0.203,north,3.0,No
2015/11/06,16:00,0.501,0.282,0.519,0.476,0.448,0.233,0.202,north,2.5,No
2015/11/06,16:10,0.504,0.282,0.516,0.478,0.454,0.231,0.203,north-northwest,1.6,No
2015/11/06,16:20,0.502,0.283,0.520,0.475,0.448,0.232,0.202,-,CALM,No
2015/11/06,16:30,0.504,0.282,0.516,0.481,0.453,0.232,0.202,north,1.4,No
2015/11/06,16:40,0.503,0.281,0.519,0.475,0.450,0.233,0.202,north,2.3,No
2015/11/06,16:50,0.505,0.281,0.516,0.481,0.453,0.233,0.203,north,1.9,No
2015/11/06,17:00,0.503,0.281,0.521,0.477,0.450,0.232,0.202,north,2.3,No
2015/11/06,17:10,0.504,0.283,0.516,0.479,0.452,0.233,0.203,north,0.8,No
2015/11/06,17:20,0.505,0.281,0.520,0.478,0.450,0.233,0.203,north-northwest,1.7,No
2015/11/06,17:30,0.502,0.281,0.516,0.479,0.452,0.232,0.203,north-northwest,1.6,No
2015/11/06,17:40,0.503,0.281,0.518,0.477,0.453,0.232,0.205,north-northwest,1.2,No
2015/11/06,17:50,0.501,0.281,0.519,0.478,0.449,0.233,0.203,north,1.9,No
2015/11/06,18:00,0.505,0.282,0.519,0.479,0.452,0.233,0.204,north,1.9,No
2015/11/06,18:10,0.501,0.282,0.519,0.476,0.450,0.233,0.203,north,2.2,No
2015/11/06,18:20,0.504,0.281,0.517,0.480,0.452,0.234,0.204,north,2.1,No
2015/11/06,18:30,0.500,0.283,0.521,0.477,0.450,0.232,0.203,north,1.7,No
2015/11/06,18:40,0.504,0.282,0.518,0.478,0.452,0.233,0.203,north-northeast,1.6,No
2015/11/06,18:50,0.503,0.283,0.520,0.478,0.451,0.233,0.203,north-northeast,1.5,No
2015/11/06,19:00,0.502,0.281,0.517,0.478,0.449,0.232,0.202,north,1.4,No
2015/11/06,19:10,0.505,0.281,0.518,0.480,0.452,0.232,0.202,north,1.6,No
2015/11/06,19:20,0.500,0.282,0.518,0.476,0.449,0.232,0.203,north,1.7,No
2015/11/06,19:30,0.506,0.281,0.518,0.479,0.451,0.232,0.203,north,1.9,No
2015/11/06,19:40,0.502,0.282,0.518,0.478,0.451,0.233,0.203,north,1.9,No
2015/11/06,19:50,0.505,0.283,0.516,0.478,0.450,0.234,0.203,north-northwest,1.4,No
2015/11/06,20:00,0.505,0.280,0.519,0.479,0.451,0.232,0.204,north,1.8,No
2015/11/06,20:10,0.503,0.282,0.515,0.477,0.449,0.233,0.203,north,2.0,No
2015/11/06,20:20,0.506,0.282,0.520,0.480,0.451,0.232,0.202,north,1.4,No
2015/11/06,20:30,0.502,0.281,0.519,0.477,0.449,0.232,0.204,north,1.6,No
2015/11/06,20:40,0.505,0.282,0.518,0.478,0.451,0.233,0.203,north,1.9,No
2015/11/06,20:50,0.504,0.281,0.521,0.477,0.450,0.233,0.203,north-northwest,1.4,No
2015/11/06,21:00,0.501,0.280,0.517,0.477,0.449,0.232,0.203,north,1.1,No
2015/11/06,21:10,0.506,0.283,0.520,0.478,0.453,0.233,0.203,north,1.4,No
2015/11/06,21:20,0.501,0.281,0.518,0.478,0.448,0.233,0.203,north-northwest,1.4,No
2015/11/06,21:30,0.505,0.282,0.518,0.477,0.450,0.233,0.204,north,1.0,No
2015/11/06,21:40,0.504,0.282,0.518,0.481,0.450,0.234,0.204,north-northwest,1.5,No
2015/11/06,21:50,0.505,0.282,0.517,0.476,0.448,0.232,0.202,north-northwest,0.8,No
2015/11/06,22:00,0.505,0.282,0.518,0.478,0.452,0.233,0.202,-,CALM,No
2015/11/06,22:10,0.501,0.281,0.517,0.477,0.450,0.233,0.204,-,CALM,No
2015/11/06,22:20,0.506,0.279,0.521,0.476,0.450,0.233,0.203,north-northeast,1.7,No
2015/11/06,22:30,0.503,0.283,0.519,0.479,0.449,0.232,0.203,northeast,1.6,No
2015/11/06,22:40,0.503,0.281,0.520,0.476,0.450,0.233,0.204,north-northwest,2.1,No
2015/11/06,22:50,0.504,0.282,0.519,0.477,0.451,0.233,0.202,north-northwest,2.3,No
2015/11/06,23:00,0.501,0.281,0.517,0.477,0.448,0.232,0.202,north,3.1,No
2015/11/06,23:10,0.506,0.280,0.520,0.476,0.452,0.233,0.202,north-northwest,3.5,No
2015/11/06,23:20,0.502,0.282,0.517,0.480,0.447,0.232,0.203,north,2.1,No
2015/11/06,23:30,0.504,0.280,0.521,0.476,0.450,0.233,0.202,-,CALM,No
2015/11/06,23:40,0.502,0.280,0.516,0.482,0.448,0.233,0.203,north,3.7,No
2015/11/06,23:50,0.504,0.281,0.520,0.478,0.449,0.232,0.202,north,4.2,No
